Location: *
(33.8649°S, 62.1526°E)
Time: 12:14:09
(UTC+00:00)

CZ-2D R/B - Pass Details

Date: 17 January 2021
Orbit: 791 x 846 km, 98.7° (Epoch: 02 March)

Event Time Altitude Azimuth Distance (km) Brightness Sun altitude
Exits shadow 21:55:03 12° 237° (WSW) 2,219 4.4 -29.3°
Drops below altitude 10° 21:55:43 10° 231° (SW) 2,383 4.6 -29.2°
Sets 21:58:49 0° 212° (SSW) 3,327 5.6 -28.9°
